Location: Bezawada
(16.5136°N, 80.6297°E)
Time: 18:52:13
(UTC+00:00)

Cosmos 1238 Rocket - Pass Details

Date: 27 February 2020
Orbit: 374 x 1032 km, 83.0° (Epoch: 30 March)

Event Time Altitude Azimuth Distance (km) Brightness Sun altitude
Rises 23:29:14 0° 355° (N) 3,011 6.5 -21.7°
Reaches altitude 10° 23:31:43 10° 355° (N) 1,982 5.6 -21.1°
Maximum altitude 23:36:02 86° 267° (W) 539 2.6 -20.0°
Drops below altitude 10° 23:39:34 10° 178° (S) 1,634 5.3 -19.2°
Sets 23:41:27 0° 177° (S) 2,433 6.2 -18.7°
